Regional Weather Roundup
Issued by NWS

Home | Current Version | Previous Version | Graphics & Text | Print | Product List | Glossary On
Versions: 1 2 3 4 5 6 7 8 9 10 11 12 13 14 15 16 17 18 19 20 21 22 23 24 25 26 27 28 29 30 31 32 33 34 35 36 37 38 39 40 41 42 43 44 45 46 47 48 49 50
000
ASUS45 KABQ 280701
RWRNM
WEATHER ROUNDUP FOR NEW MEXICO
NATIONAL WEATHER SERVICE ALBUQUERQUE NM
100 AM MDT THU AUG 28 2014

NOTE: "FAIR" MEANS FEW OR NO CLOUDS BELOW 12,000 FEET AGL WITH NO
       SIGNIFICANT WEATHER OR OBSTRUCTIONS TO VISION.

      THIS PRODUCT IS RELEASED AS TWO VERSIONS.  ONE VERSION NEAR
      THE TOP OF THE HOUR CONTAINING PRELIMINARY DATA FROM ALBUQUERQUE
      AND OTHER STATIONS.  A FINAL VERSION WITH ADDITIONAL DATA IS
      ISSUED ABOUT 10 MINUTES AFTER THE HOUR.

NMZ501-503-504-510>518-280800-
NORTHWEST PLATEAU/NORTHCENTRAL MOUNTAINS

CITY           SKY/WX    TMP DP  RH WIND       PRES   REMARKS
FARMINGTON     CLEAR     55  46  71 E5        30.26S
LOS ALAMOS     CLEAR     58  39  49 SE3       30.33S
SANTA FE       CLEAR     53  45  74 CALM      30.27S
ANGEL FIRE     FAIR      52  34  50 W3        30.36F

$$
NMZ402-403-502-505>509-280800-
WESTCENTRAL MOUNTAINS/SOUTHWEST MOUNTAINS

CITY           SKY/WX    TMP DP  RH WIND       PRES   REMARKS
GALLUP         PTCLDY    51  39  63 CALM      30.32F
SILVER CITY    CLEAR     64  54  68 N6        30.26S

$$
NMZ407-409-411-412-280800-
SOUTHERN DESERTS

CITY           SKY/WX    TMP DP  RH WIND       PRES   REMARKS
LORDSBURG      FAIR      68  54  60 CALM      30.16S
DEMING         CLEAR     69  55  60 E7        30.16F
HOLLOMAN AFB   PTCLDY    70  61  74 CALM      30.13F
ALAMOGORDO     PTCLDY    66  57  72 E6        30.15F
T OR C         PTCLDY    67  59  75 W6        30.20F

$$
NMZ519>523-280800-
CENTRAL VALLEYS/CENTRAL HIGHLANDS

CITY           SKY/WX    TMP DP  RH WIND       PRES   REMARKS
ALBUQUERQUE    PTCLDY    68  45  43 N7        30.23F
DOUBLE EAGLE   CLEAR     59  47  64 NW8       30.27S
CLINES CORNERS CLEAR     54  47  77 W9        30.30S
BELEN          FAIR      59  56  89 NW6       30.22S
SOCORRO        NOT AVBL

$$
NMZ524>526-539-540-280800-
SOUTHCENTRAL MOUNTAINS

CITY           SKY/WX    TMP DP  RH WIND       PRES   REMARKS
RUIDOSO        NOT AVBL

$$
NMZ527>531-280800-
NORTHEAST HIGHLANDS/NORTHEAST PLAINS

CITY           SKY/WX    TMP DP  RH WIND       PRES   REMARKS
LAS VEGAS      CLEAR     55  42  61 CALM      30.28S
RATON          CLEAR     56  38  50 CALM      30.20F
CLAYTON        CLEAR     62  52  69 SW7       30.11S

$$
NMZ532>537-280800-
EASTCENTRAL PLAINS

CITY           SKY/WX    TMP DP  RH WIND       PRES   REMARKS
TUCUMCARI      CLEAR     69  58  67 SW8       30.08F
CANNON AFB     PTCLDY    67  59  73 SE8       30.14R
CLOVIS AIRPORT   N/A     66  57  72 S6        30.15F

$$
NMZ028-029-538-280800-
SOUTHEAST PLAINS

CITY           SKY/WX    TMP DP  RH WIND       PRES   REMARKS
ROSWELL        CLEAR     73  62  68 W7        30.08F
CARLSBAD       PTCLDY    74  61  63 W7        30.04F
HOBBS          MOCLDY    75  59  57 NE5       30.09F


$$


USA.gov is the U.S. government's official web portal to all federal, state and local government web resources and services.